Regional Weather Roundup
Issued by NWS

Home | Current Version | Previous Version | Graphics & Text | Print | Product List | Glossary On
Versions: 1 2 3 4 5 6 7 8 9 10 11 12 13 14 15 16 17 18 19 20 21 22 23 24 25 26 27 28 29 30 31 32 33 34 35 36 37 38 39 40 41 42 43 44 45 46 47 48 49 50
000
ASUS43 KIND 181400
RWRIN

WEATHER ROUNDUP FOR INDIANA
NATIONAL WEATHER SERVICE INDIANAPOLIS IN
1000 AM EDT WED OCT 18 2017

NOTE: "FAIR" INDICATES FEW OR NO CLOUDS BELOW 12,000 FEET WITH NO
SIGNIFICANT WEATHER AND/OR OBSTRUCTIONS TO VISIBILITY.

* - STATION DOES NOT REPORT WEATHER SUCH AS PRECIPITATION OR FOG.

+ - STATION NOT QUALITY CONTROLLED BY THE NATIONAL WEATHER SERVICE.
    USE DATA WITH CAUTION...ESPECIALLY DEWPOINT AND RELATIVE
    HUMIDITY OBSERVATIONS.

INZ001>003-010>013-019-020-181500-
NORTHWEST INDIANA

CITY           SKY/WX    TMP DP  RH WIND       PRES   REMARKS
GARY /AIRPORT/ SUNNY     55  39  54 S13       30.20S
KNOX *+        SUNNY     52  43  71 S7        30.22F
MICHIGAN CITY+ SUNNY     54  41  62 S12       30.22R
MONTICELLO +   SUNNY     52  43  71 SE7       30.24F
RENSSELAER +   SUNNY     52  41  66 S8        30.23S

$$

LMZ046-743>745-181500-
SOUTHERN LAKE MICHIGAN

STATION/POSITION TIME  TEMP    WIND        PRES    WAVE
                       AIR SEA DIR/SP/G            HT
                 (UTC) (F)     (DEG/KT/KT) (MB)    (FT)
BURNS HARBOR     1340   53     180/ 10/ 15 1023.0R
MICHIGAN CITY    1330   51     160/ 15/ 21   N/A
5NW MICH CITY    1350   53 57  190/ 14/ 17   N/A     2

$$

INZ004-005-014>016-021>024-181500-
NORTH CENTRAL INDIANA

CITY           SKY/WX    TMP DP  RH WIND       PRES   REMARKS
ELKHART        SUNNY     52  41  66 S8        30.23R
GOSHEN         SUNNY     54  41  61 S12       30.24R
PERU/GRISSOM   SUNNY     53  45  75 S9        30.26R
SOUTH BEND     SUNNY     52  44  74 S10       30.22S

$$

INZ006>009-017-018-025>027-181500-
NORTHEAST INDIANA

CITY           SKY/WX    TMP DP  RH WIND       PRES   REMARKS
FORT WAYNE     MOSUNNY   53  44  71 S8        30.28R
KENDALLVILLE + SUNNY     53  42  67 SW7       30.26R

$$

INZ028-029-035-036-043>045-051>053-181500-
WEST CENTRAL INDIANA

CITY           SKY/WX    TMP DP  RH WIND       PRES   REMARKS
GREENCASTLE +  SUNNY     50  43  76 S5        30.29S
LAFAYETTE      SUNNY     51  45  79 S6        30.25S
TERRE HAUTE    SUNNY     52  45  77 S6        30.28R

$$

INZ030>032-037>040-046>048-054>057-064-065-181500-
CENTRAL INDIANA

CITY           SKY/WX    TMP DP  RH WIND       PRES   REMARKS
GREENWOOD *+   SUNNY     54  47  78 S5        30.30R
INDIANAPOLIS   MOSUNNY   50  44  80 SE6       30.29R
-EAGLE CREEK   SUNNY     51  44  77 VRB3      30.28S
KOKOMO +       SUNNY     52  44  74 S9        30.28S
MT COMFORT *+  SUNNY     52  48  87 S3        30.29S
SHELBYVILLE    SUNNY     54  44  69 S6        30.30R

$$

INZ033-034-041-042-049-050-058-059-181500-
EAST CENTRAL INDIANA

CITY           SKY/WX    TMP DP  RH WIND       PRES   REMARKS
MUNCIE         SUNNY     56  42  59 S7        30.29R
RICHMOND +     SUNNY     52  43  71 S7        30.32S

$$

INZ060-061-067>069-081>083-085>088-181500-
SOUTHWEST INDIANA

CITY           SKY/WX    TMP DP  RH WIND       PRES   REMARKS
EVANSVILLE     SUNNY     51  46  83 CALM      30.30R

$$

INZ062-063-066-070>080-084-089>092-181500-
SOUTH CENTRAL AND SOUTHEAST INDIANA

CITY           SKY/WX    TMP DP  RH WIND       PRES   REMARKS
BLOOMINGTON    SUNNY     52  44  74 SE6       30.29R
MADISON *+     SUNNY     52  45  76 CALM      30.34R
SEYMOUR +      SUNNY     54  46  76 CALM      30.32R

$$





USA.gov is the U.S. government's official web portal to all federal, state and local government web resources and services.